Location: Unspecified
(0.0000°N, 0.0000°E)
Time: 18:55:56
(UTC+00:00)

CZ-3C DEB - Visible Passes

Search period start: 07 December 2025 00:00
Search period end: 17 December 2025 00:00
Orbit: 513 x 34901 km, 20.7° (Epoch: 02 December)

Date Brightness Start Highest point End Pass type
(mag) Time Alt. Az. Time Alt. Az. Time Alt. Az.
07 Dec ? 20:58:31 10° ENE 00:04:08 24° ENE 01:35:28 10° ENE visible
08 Dec ? 23:54:51 10° WSW 01:27:51 58° WNW 09:34:34 10° ESE visible
09 Dec ? 20:18:21 10° WSW 20:39:20 75° SSE 06:01:51 10° E visible
10 Dec ? 16:50:22 10° SSW 00:23:36 31° ENE 02:06:21 10° ENE visible
12 Dec ? 00:17:51 10° W 01:52:02 50° WNW 09:54:32 10° ESE visible
12 Dec ? 20:38:31 10° WSW 21:04:26 82° SSE 06:22:54 10° E visible
13 Dec ? 17:09:44 10° SSW 17:16:40 30° SE 02:33:32 10° ENE visible
15 Dec ? 00:41:25 10° W 02:14:51 42° WNW 10:13:57 10° ESE visible
15 Dec ? 20:58:23 10° WSW 21:31:11 89° SSE 06:43:12 10° E visible
